Sigfox identifier Datetime Temperature Humidity SNR
0038B116 2018-10-09 09:05:41 21.1 38 18.1
0038B116 2018-10-09 07:59:41 21.1 38 18.3
0038B116 2018-10-09 06:53:41 21.1 38 18.4
0038B116 2018-10-09 05:47:42 21.1 38 18.7
0038B116 2018-10-09 04:41:42 21.1 38 18.9
0038B116 2018-10-09 01:23:42 21.1 37 19.5
0038B116 2018-10-09 00:17:43 21.1 37 19.6
0038B116 2018-10-08 23:11:42 21.1 37 19.7
0038B116 2018-10-08 22:05:41 21.1 37 19.8
0038B116 2018-10-08 20:59:43 21.1 37 19.8
0038B116 2018-10-08 19:53:46 21.1 37 19.8
0038B116 2018-10-08 18:47:55 21.1 37 19.8
0038B116 2018-10-08 17:42:02 21.1 37 19.9
0038B116 2018-10-08 16:36:04 21 36 20.1
0038B116 2018-10-08 15:30:05 20.9 36 20.3
0038B116 2018-10-08 14:24:08 20.9 36 20.3
0038B116 2018-10-08 12:12:16 20.7 35 20.2
0038B116 2018-10-08 11:06:20 20.5 34 20.1
0038B116 2018-10-08 10:00:21 20.5 34 20.2
0038B116 2018-10-08 08:54:19 20.4 35 20.3
0038B116 2018-10-08 07:48:20 20.4 36 20.4
0038B116 2018-10-08 06:42:16 20.5 36 20.3
0038B116 2018-10-08 05:36:15 20.5 36 20.1
0038B116 2018-10-08 04:30:12 20.5 36 20.3
0038B116 2018-10-08 03:24:11 20.5 37 20.4
0038B116 2018-10-08 02:18:09 20.5 37 20.5
0038B116 2018-10-08 01:12:04 20.5 37 20.4
0038B116 2018-10-08 00:06:00 20.5 38 20.2
0038B116 2018-10-07 22:59:55 20.7 38 20.1
0038B116 2018-10-07 21:53:50 20.6 38 19.8
0038B116 2018-10-07 20:47:47 20.7 38 19.7
0038B116 2018-10-07 19:41:47 20.7 38 19.6
0038B116 2018-10-07 18:35:42 20.7 38 19.6
0038B116 2018-10-07 17:29:41 20.7 38 19.9
0038B116 2018-10-07 16:23:41 20.7 39 19.8
0038B116 2018-10-07 15:17:43 20.6 39 19.9
0038B116 2018-10-07 14:11:36 20.7 39 20.1
0038B116 2018-10-07 13:05:32 20.7 39 19.9
0038B116 2018-10-07 11:59:31 20.7 39 19.7
0038B116 2018-10-07 10:53:27 20.7 39 19.8
0038B116 2018-10-07 09:47:25 20.7 39 19.9
0038B116 2018-10-07 08:41:25 20.7 39 20.2
0038B116 2018-10-07 07:35:24 20.7 40 20.4
0038B116 2018-10-07 06:29:22 20.7 40 20.4
0038B116 2018-10-07 05:23:25 20.7 40 20.3
0038B116 2018-10-07 04:17:26 20.8 40 20.4
0038B116 2018-10-07 03:11:30 20.7 40 20.5
0038B116 2018-10-07 02:05:36 20.9 40 20.5
0038B116 2018-10-07 00:59:40 20.9 40 20.4
0038B116 2018-10-06 23:53:46 20.9 40 20.2
0038B116 2018-10-06 22:47:52 20.9 40 20.3
0038B116 2018-10-06 21:41:56 20.9 40 20.4
0038B116 2018-10-06 20:36:02 21 40 20.7
0038B116 2018-10-06 19:30:03 20.9 40 20.6
0038B116 2018-10-06 18:24:06 20.9 40 20.8
0038B116 2018-10-06 17:18:11 20.9 40 20.8
0038B116 2018-10-06 16:12:16 20.9 40 20.8
0038B116 2018-10-06 15:06:22 20.9 40 20.8
0038B116 2018-10-06 14:00:23 20.9 40 20.7
0038B116 2018-10-06 12:54:26 20.9 40 20.9
0038B116 2018-10-06 11:48:30 20.9 41 20.9
0038B116 2018-10-06 10:42:32 20.9 41 20.9
0038B116 2018-10-06 09:36:33 20.9 41 21.1
0038B116 2018-10-06 08:30:32 21 41 21.3
0038B116 2018-10-06 07:24:33 21 41 21.3
0038B116 2018-10-06 06:18:37 21.1 41 21.3
0038B116 2018-10-06 05:12:36 21.1 42 21.3
0038B116 2018-10-06 04:06:42 21.1 42 20.9
0038B116 2018-10-06 03:00:47 21.2 42 21.3
0038B116 2018-10-06 01:54:53 21.4 42 21.4
0038B116 2018-10-06 00:48:54 21.3 42 21.4
0038B116 2018-10-05 23:42:56 21.4 42 21.1
0038B116 2018-10-05 22:37:00 21.5 42 21.1
0038B116 2018-10-05 21:31:02 21.6 43 21.4
0038B116 2018-10-05 20:25:07 21.7 43 21.5
0038B116 2018-10-05 19:19:09 21.8 43 21.6
0038B116 2018-10-05 18:13:11 22 43 20.2
0038B116 2018-10-05 17:07:13 22.2 45 13.8
0038B116 2018-10-05 16:01:13 22 57 0